Погода в Мекен-Юрте

Россия / Чеченская Республика     43°36′48″N   45°24′26″E
темп.,
°C
ветер,
м/с
пор.,
м/с
влажн.,
%
обл.,
%
осадки,
мм/ч
давл.,
гПа
погр.,
м
13 июня, вс
вс1300:00+19юз1174100 0.0 101112
03:00+19з1174100 0.0 101112
06:00+18зсз2379100 0.0 1011127
09:00+20зсз4479100 0.1 1011477
12:00+22сз4470100 0.1 1011915
15:00+24зсз5565100 0.9 10111026
18:00+19зсз358599 2.8 1012345
21:00+17зюз1189100 2.8 101211
14 июня, пн
пн1400:00+16юз11892 0.0 101312
03:00+16юз11890 0.0 101214
06:00+18зюз12830 0.0 1013127
09:00+23с22660 0.0 1012819
12:00+26св33510 0.0 10111426
15:00+28ссв32431 0.0 10101682
18:00+28ссв23480 0.0 1009390
21:00+22ссв11580 0.0 101011
15 июня, вт
вт1500:00+21ю22654 0.0 100911
03:00+19ююз11730 0.0 100811
06:00+21вюв116972 0.0 100899
09:00+26всв3353100 0.0 1008859
12:00+30св44431 0.0 10071284
15:00+32ссв33370 0.0 10072027
18:00+31ссв34441 0.0 1007288
21:00+24вюв35590 0.0 100976
16 июня, ср
ср1600:00+22вюв23660 0.0 100843
03:00+21ююв11730 0.0 100811
06:00+22в25700 0.0 1008212
09:00+28в57460 0.0 10061016
12:00+33в67320 0.0 10041491
15:00+34всв54300 0.0 10041552
18:00+31св46380 0.0 1006301
21:00+24з34550 0.0 100862
17 июня, чт
чт1700:00+21з511880 0.0 1009331
03:00+19з59860 0.0 1010327
06:00+21зсз47796 0.0 1009354
09:00+26зсз44600 0.0 1008793
12:00+29сз32486 0.0 10061429
15:00+31сз434420 0.0 10061734
18:00+28зсз6859100 0.0 1008609
21:00+22зсз61184100 2.7 1011500